Voltar ao catálogo

SL-16 DEB

AtivoLEO
NORAD 23406·DEBRIS·🇷🇺 Russia

Lançado Nov 24, 1994 de Baikonur Cosmodrome

Loading…

Próximas Passagens (próximas 24 horas)

TLE

AtualizadoSource: Space-Track

Época: Sep 14, 2026, 09:08 UTC

1 23406U 94077C   26257.38089806  .00000032  00000-0  68307-4 0  9999
2 23406  71.0286 236.6642 0199793 151.7485   0.4132 13.73476442593377

Acompanhe SL-16 DEB em tempo real com AllMySat

Download on the App Store